Year,Month,Day,Hour,Minute,Value (Times are PST for temperature in C)
2015,07,19,00,00,19.60
2015,07,19,00,01,19.50
2015,07,19,00,02,19.50
2015,07,19,00,03,19.40
2015,07,19,00,04,19.40
2015,07,19,00,05,19.30
2015,07,19,00,06,19.30
2015,07,19,00,07,19.20
2015,07,19,00,08,19.20
2015,07,19,00,09,19.20
2015,07,19,00,10,19.10
2015,07,19,00,11,19.10
2015,07,19,00,12,19.10
2015,07,19,00,13,19.10
2015,07,19,00,14,19.10
2015,07,19,00,15,19.10
2015,07,19,00,16,19.10
2015,07,19,00,17,19.10
2015,07,19,00,18,19.10
2015,07,19,00,19,19.10
2015,07,19,00,20,19.10
2015,07,19,00,21,19.10
2015,07,19,00,22,19.10
2015,07,19,00,23,19.10
2015,07,19,00,24,19.10
2015,07,19,00,25,19.10
2015,07,19,00,26,19.20
2015,07,19,00,27,19.10
2015,07,19,00,28,19.10
2015,07,19,00,29,19.10
2015,07,19,00,30,19.10
2015,07,19,00,31,19.10
2015,07,19,00,32,19.10
2015,07,19,00,33,18.90
2015,07,19,00,34,18.90
2015,07,19,00,35,18.90
2015,07,19,00,36,18.90
2015,07,19,00,37,18.80
2015,07,19,00,38,18.70
2015,07,19,00,39,18.60
2015,07,19,00,40,18.50
2015,07,19,00,41,18.50
2015,07,19,00,42,18.40
2015,07,19,00,43,18.30
2015,07,19,00,44,18.20
2015,07,19,00,45,18.10
2015,07,19,00,46,17.90
2015,07,19,00,47,17.70
2015,07,19,00,48,17.60
2015,07,19,00,49,17.50
2015,07,19,00,50,17.30
2015,07,19,00,51,17.30
2015,07,19,00,52,17.20
2015,07,19,00,53,17.10
2015,07,19,00,54,17.00
2015,07,19,00,55,17.00
2015,07,19,00,56,17.00
2015,07,19,00,57,16.90
2015,07,19,00,58,16.80
2015,07,19,00,59,16.70
2015,07,19,01,00,16.70
2015,07,19,01,01,16.70
2015,07,19,01,02,16.60
2015,07,19,01,03,16.60
2015,07,19,01,04,16.50
2015,07,19,01,05,16.40
2015,07,19,01,06,16.40
2015,07,19,01,07,16.40
2015,07,19,01,08,16.40
2015,07,19,01,09,16.40
2015,07,19,01,10,16.40
2015,07,19,01,11,16.40
2015,07,19,01,12,16.40
2015,07,19,01,13,16.40
2015,07,19,01,14,16.40
2015,07,19,01,15,16.40
2015,07,19,01,16,16.40
2015,07,19,01,17,16.40
2015,07,19,01,18,16.40
2015,07,19,01,19,16.40
2015,07,19,01,20,16.40
2015,07,19,01,21,16.40
2015,07,19,01,22,16.40
2015,07,19,01,23,16.40
2015,07,19,01,24,16.40
2015,07,19,01,25,16.40
2015,07,19,01,26,16.40
2015,07,19,01,27,16.50
2015,07,19,01,28,16.60
2015,07,19,01,29,16.60
2015,07,19,01,30,16.70
2015,07,19,01,31,16.80
2015,07,19,01,32,16.80
2015,07,19,01,33,16.90
2015,07,19,01,34,17.00
2015,07,19,01,35,17.00
2015,07,19,01,36,17.10
2015,07,19,01,37,17.10
2015,07,19,01,38,17.20
2015,07,19,01,39,17.20
2015,07,19,01,40,17.20
2015,07,19,01,41,17.30
2015,07,19,01,42,17.30
2015,07,19,01,43,17.30
2015,07,19,01,44,17.30
2015,07,19,01,45,17.30
2015,07,19,01,46,17.30
2015,07,19,01,47,17.30
2015,07,19,01,48,17.30
2015,07,19,01,49,17.30
2015,07,19,01,50,17.30
2015,07,19,01,51,17.40
2015,07,19,01,52,17.40
2015,07,19,01,53,17.40
2015,07,19,01,54,17.40
2015,07,19,01,55,17.40
2015,07,19,01,56,17.40
2015,07,19,01,57,17.40
2015,07,19,01,58,17.40
2015,07,19,01,59,17.40
2015,07,19,02,00,17.40
2015,07,19,02,01,17.40
2015,07,19,02,02,17.40
2015,07,19,02,03,17.40
2015,07,19,02,04,17.30
2015,07,19,02,05,17.30
2015,07,19,02,06,17.30
2015,07,19,02,07,17.30
2015,07,19,02,08,17.30
2015,07,19,02,09,17.30
2015,07,19,02,10,17.20
2015,07,19,02,11,17.20
2015,07,19,02,12,17.20
2015,07,19,02,13,17.10
2015,07,19,02,14,17.10
2015,07,19,02,15,17.10
2015,07,19,02,16,17.10
2015,07,19,02,17,17.00
2015,07,19,02,18,17.00
2015,07,19,02,19,17.00
2015,07,19,02,20,17.00
2015,07,19,02,21,16.90
2015,07,19,02,22,16.90
2015,07,19,02,23,16.90
2015,07,19,02,24,16.90
2015,07,19,02,25,16.80
2015,07,19,02,26,16.80
2015,07,19,02,27,16.80
2015,07,19,02,28,16.80
2015,07,19,02,29,16.70
2015,07,19,02,30,16.70
2015,07,19,02,31,16.70
2015,07,19,02,32,16.70
2015,07,19,02,33,16.70
2015,07,19,02,34,16.70
2015,07,19,02,35,16.70
2015,07,19,02,36,16.70
2015,07,19,02,37,16.70
2015,07,19,02,38,16.70
2015,07,19,02,39,16.70
2015,07,19,02,40,16.70
2015,07,19,02,41,16.60
2015,07,19,02,42,16.60
2015,07,19,02,43,16.60
2015,07,19,02,44,16.60
2015,07,19,02,45,16.60
2015,07,19,02,46,16.60
2015,07,19,02,47,16.60
2015,07,19,02,48,16.60
2015,07,19,02,49,16.60
2015,07,19,02,50,16.60
2015,07,19,02,51,16.60
2015,07,19,02,52,16.60
2015,07,19,02,53,16.60
2015,07,19,02,54,16.60
2015,07,19,02,55,16.60
2015,07,19,02,56,16.60
2015,07,19,02,57,16.60
2015,07,19,02,58,16.60
2015,07,19,02,59,16.60
2015,07,19,03,00,16.60
2015,07,19,03,01,16.60
2015,07,19,03,02,16.60
2015,07,19,03,03,16.60
2015,07,19,03,04,16.60
2015,07,19,03,05,16.60
2015,07,19,03,06,16.60
2015,07,19,03,07,16.60
2015,07,19,03,08,16.60
2015,07,19,03,09,16.60
2015,07,19,03,10,16.60
2015,07,19,03,11,16.60
2015,07,19,03,12,16.60
2015,07,19,03,13,16.60
2015,07,19,03,14,16.60
2015,07,19,03,15,16.60
2015,07,19,03,16,16.60
2015,07,19,03,17,16.60
2015,07,19,03,18,16.60
2015,07,19,03,19,16.60
2015,07,19,03,20,16.50
2015,07,19,03,21,16.40
2015,07,19,03,22,16.40
2015,07,19,03,23,16.40
2015,07,19,03,24,16.40
2015,07,19,03,25,16.40
2015,07,19,03,26,16.40
2015,07,19,03,27,16.40
2015,07,19,03,28,16.40
2015,07,19,03,29,16.30
2015,07,19,03,30,16.30
2015,07,19,03,31,16.30
2015,07,19,03,32,16.30
2015,07,19,03,33,16.30
2015,07,19,03,34,16.30
2015,07,19,03,35,16.30
2015,07,19,03,36,16.20
2015,07,19,03,37,16.20
2015,07,19,03,38,16.20
2015,07,19,03,39,16.20
2015,07,19,03,40,16.20
2015,07,19,03,41,16.10
2015,07,19,03,42,16.10
2015,07,19,03,43,16.10
2015,07,19,03,44,16.10
2015,07,19,03,45,16.10
2015,07,19,03,46,16.10
2015,07,19,03,47,16.10
2015,07,19,03,48,16.00
2015,07,19,03,49,15.90
2015,07,19,03,50,15.90
2015,07,19,03,51,15.90
2015,07,19,03,52,15.90
2015,07,19,03,53,15.90
2015,07,19,03,54,15.90
2015,07,19,03,55,15.90
2015,07,19,03,56,15.90
2015,07,19,03,57,15.90
2015,07,19,03,58,15.90
2015,07,19,03,59,15.90
2015,07,19,04,00,15.90
2015,07,19,04,01,15.90
2015,07,19,04,02,15.90
2015,07,19,04,03,15.90
2015,07,19,04,04,15.90
2015,07,19,04,05,15.90
2015,07,19,04,06,15.90
2015,07,19,04,07,15.90
2015,07,19,04,08,15.90
2015,07,19,04,09,15.90
2015,07,19,04,10,15.90
2015,07,19,04,11,15.90
2015,07,19,04,12,15.90
2015,07,19,04,13,15.90
2015,07,19,04,14,15.90
2015,07,19,04,15,15.90
2015,07,19,04,16,16.00
2015,07,19,04,17,16.10
2015,07,19,04,18,16.10
2015,07,19,04,19,16.10
2015,07,19,04,20,16.10
2015,07,19,04,21,16.10
2015,07,19,04,22,16.10
2015,07,19,04,23,16.10
2015,07,19,04,24,16.10
2015,07,19,04,25,16.10
2015,07,19,04,26,16.10
2015,07,19,04,27,16.10
2015,07,19,04,28,16.10
2015,07,19,04,29,16.10
2015,07,19,04,30,16.10
2015,07,19,04,31,16.10
2015,07,19,04,32,16.10
2015,07,19,04,33,16.10
2015,07,19,04,34,16.10
2015,07,19,04,35,16.10
2015,07,19,04,36,16.10
2015,07,19,04,37,16.10
2015,07,19,04,38,16.10
2015,07,19,04,39,16.10
2015,07,19,04,40,16.10
2015,07,19,04,41,16.20
2015,07,19,04,42,16.20
2015,07,19,04,43,16.20
2015,07,19,04,44,16.20
2015,07,19,04,45,16.20
2015,07,19,04,46,16.20
2015,07,19,04,47,16.30
2015,07,19,04,48,16.30
2015,07,19,04,49,16.30
2015,07,19,04,50,16.30
2015,07,19,04,51,16.30
2015,07,19,04,52,16.30
2015,07,19,04,53,16.30
2015,07,19,04,54,16.30
2015,07,19,04,55,16.40
2015,07,19,04,56,16.40
2015,07,19,04,57,16.40
2015,07,19,04,58,16.40
2015,07,19,04,59,16.40
2015,07,19,05,00,16.40
2015,07,19,05,01,16.40
2015,07,19,05,02,16.40
2015,07,19,05,03,16.40
2015,07,19,05,04,16.40
2015,07,19,05,05,16.40
2015,07,19,05,06,16.40
2015,07,19,05,07,16.40
2015,07,19,05,08,16.50
2015,07,19,05,09,16.60
2015,07,19,05,10,16.60
2015,07,19,05,11,16.60
2015,07,19,05,12,16.60
2015,07,19,05,13,16.70
2015,07,19,05,14,16.70
2015,07,19,05,15,16.70
2015,07,19,05,16,16.70
2015,07,19,05,17,16.70
2015,07,19,05,18,16.70
2015,07,19,05,19,16.70
2015,07,19,05,20,16.70
2015,07,19,05,21,16.80
2015,07,19,05,22,16.80
2015,07,19,05,23,16.80
2015,07,19,05,24,16.80
2015,07,19,05,25,16.90
2015,07,19,05,26,16.90
2015,07,19,05,27,16.90
2015,07,19,05,28,16.90
2015,07,19,05,29,16.90
2015,07,19,05,30,17.00
2015,07,19,05,31,17.00
2015,07,19,05,32,17.00
2015,07,19,05,33,17.10
2015,07,19,05,34,17.10
2015,07,19,05,35,17.10
2015,07,19,05,36,17.20
2015,07,19,05,37,17.20
2015,07,19,05,38,17.20
2015,07,19,05,39,17.30
2015,07,19,05,40,17.30
2015,07,19,05,41,17.30
2015,07,19,05,42,17.30
2015,07,19,05,43,17.30
2015,07,19,05,44,17.30
2015,07,19,05,45,17.30
2015,07,19,05,46,17.30
2015,07,19,05,47,17.30
2015,07,19,05,48,17.30
2015,07,19,05,49,17.40
2015,07,19,05,50,17.40
2015,07,19,05,51,17.40
2015,07,19,05,52,17.40
2015,07,19,05,53,17.40
2015,07,19,05,54,17.40
2015,07,19,05,55,17.40
2015,07,19,05,56,17.40
2015,07,19,05,57,17.40
2015,07,19,05,58,17.40
2015,07,19,05,59,17.40
2015,07,19,06,00,17.40
2015,07,19,06,01,17.50
2015,07,19,06,02,17.50
2015,07,19,06,03,17.50
2015,07,19,06,04,17.50
2015,07,19,06,05,17.50
2015,07,19,06,06,17.60
2015,07,19,06,07,17.60
2015,07,19,06,08,17.60
2015,07,19,06,09,17.60
2015,07,19,06,10,17.70
2015,07,19,06,11,17.70
2015,07,19,06,12,17.70
2015,07,19,06,13,17.80
2015,07,19,06,14,17.80
2015,07,19,06,15,17.90
2015,07,19,06,16,17.90
2015,07,19,06,17,18.00
2015,07,19,06,18,18.10
2015,07,19,06,19,18.20
2015,07,19,06,20,18.20
2015,07,19,06,21,18.30
2015,07,19,06,22,18.30
2015,07,19,06,23,18.40
2015,07,19,06,24,18.40
2015,07,19,06,25,18.40
2015,07,19,06,26,18.50
2015,07,19,06,27,18.50
2015,07,19,06,28,18.60
2015,07,19,06,29,18.60
2015,07,19,06,30,18.70
2015,07,19,06,31,18.90
2015,07,19,06,32,18.90
2015,07,19,06,33,19.00
2015,07,19,06,34,19.10
2015,07,19,06,35,19.20
2015,07,19,06,36,19.20
2015,07,19,06,37,19.30
2015,07,19,06,38,19.30
2015,07,19,06,39,19.30
2015,07,19,06,40,19.30
2015,07,19,06,41,19.30
2015,07,19,06,42,19.40
2015,07,19,06,43,19.40
2015,07,19,06,44,19.40
2015,07,19,06,45,19.40
2015,07,19,06,46,19.40
2015,07,19,06,47,19.40
2015,07,19,06,48,19.40
2015,07,19,06,49,19.50
2015,07,19,06,50,19.50
2015,07,19,06,51,19.50
2015,07,19,06,52,19.50
2015,07,19,06,53,19.50
2015,07,19,06,54,19.50
2015,07,19,06,55,19.40
2015,07,19,06,56,19.40
2015,07,19,06,57,19.40
2015,07,19,06,58,19.40
2015,07,19,06,59,19.30
2015,07,19,07,00,19.30
2015,07,19,07,01,19.20
2015,07,19,07,02,19.10
2015,07,19,07,03,19.10
2015,07,19,07,04,19.10
2015,07,19,07,05,19.00
2015,07,19,07,06,18.90
2015,07,19,07,07,18.90
2015,07,19,07,08,18.80
2015,07,19,07,09,18.80
2015,07,19,07,10,18.70
2015,07,19,07,11,18.70
2015,07,19,07,12,18.70
2015,07,19,07,13,18.70
2015,07,19,07,14,18.70
2015,07,19,07,15,18.70
2015,07,19,07,16,18.70
2015,07,19,07,17,18.70
2015,07,19,07,18,18.60
2015,07,19,07,19,18.60
2015,07,19,07,20,18.60
2015,07,19,07,21,18.60
2015,07,19,07,22,18.50
2015,07,19,07,23,18.50
2015,07,19,07,24,18.50
2015,07,19,07,25,18.50
2015,07,19,07,26,18.50
2015,07,19,07,27,18.60
2015,07,19,07,28,18.60
2015,07,19,07,29,18.70
2015,07,19,07,30,18.70
2015,07,19,07,31,18.80
2015,07,19,07,32,18.80
2015,07,19,07,33,18.90
2015,07,19,07,34,18.90
2015,07,19,07,35,18.90
2015,07,19,07,36,18.90
2015,07,19,07,37,18.90
2015,07,19,07,38,18.90
2015,07,19,07,39,18.90
2015,07,19,07,40,18.90
2015,07,19,07,41,18.90
2015,07,19,07,42,19.00
2015,07,19,07,43,19.10
2015,07,19,07,44,19.10
2015,07,19,07,45,19.10
2015,07,19,07,46,19.20
2015,07,19,07,47,19.30
2015,07,19,07,48,19.40
2015,07,19,07,49,19.50
2015,07,19,07,50,19.60
2015,07,19,07,51,19.70
2015,07,19,07,52,19.70
2015,07,19,07,53,19.80
2015,07,19,07,54,19.80
2015,07,19,07,55,19.80
2015,07,19,07,56,19.80
2015,07,19,07,57,19.80
2015,07,19,07,58,19.90
2015,07,19,07,59,19.90
2015,07,19,08,00,20.00
2015,07,19,08,01,20.10
2015,07,19,08,02,20.20
2015,07,19,08,03,20.20
2015,07,19,08,04,20.20
2015,07,19,08,05,20.30
2015,07,19,08,06,20.50
2015,07,19,08,07,20.50
2015,07,19,08,08,20.70
2015,07,19,08,09,20.80
2015,07,19,08,10,20.90
2015,07,19,08,11,21.00
2015,07,19,08,12,21.10
2015,07,19,08,13,21.30
2015,07,19,08,14,21.30
2015,07,19,08,15,21.40
2015,07,19,08,16,21.60
2015,07,19,08,17,21.60
2015,07,19,08,18,21.80
2015,07,19,08,19,21.90
2015,07,19,08,20,21.90
2015,07,19,08,21,22.00
2015,07,19,08,22,22.10
2015,07,19,08,23,22.20
2015,07,19,08,24,22.40
2015,07,19,08,25,22.40
2015,07,19,08,26,22.60
2015,07,19,08,27,22.70
2015,07,19,08,28,22.80
2015,07,19,08,29,22.80
2015,07,19,08,30,22.90
2015,07,19,08,31,23.00
2015,07,19,08,32,23.10
2015,07,19,08,33,23.10
2015,07,19,08,34,23.20
2015,07,19,08,35,23.30
2015,07,19,08,36,23.30
2015,07,19,08,37,23.30
2015,07,19,08,38,23.40
2015,07,19,08,39,23.50
2015,07,19,08,40,23.60
2015,07,19,08,41,23.60
2015,07,19,08,42,23.60
2015,07,19,08,43,23.60
2015,07,19,08,44,23.60
2015,07,19,08,45,23.50
2015,07,19,08,46,23.60
2015,07,19,08,47,23.60
2015,07,19,08,48,23.70
2015,07,19,08,49,23.70
2015,07,19,08,50,23.70
2015,07,19,08,51,23.80
2015,07,19,08,52,23.80
2015,07,19,08,53,23.90
2015,07,19,08,54,23.90
2015,07,19,08,55,23.90
2015,07,19,08,56,24.00
2015,07,19,08,57,24.10
2015,07,19,08,58,24.10
2015,07,19,08,59,24.10
2015,07,19,09,00,24.10
2015,07,19,09,01,24.10
2015,07,19,09,02,24.10
2015,07,19,09,03,24.10
2015,07,19,09,04,24.10
2015,07,19,09,05,24.10
2015,07,19,09,06,24.10
2015,07,19,09,07,24.10
2015,07,19,09,08,24.10
2015,07,19,09,09,24.10
2015,07,19,09,10,24.00
2015,07,19,09,11,23.90
2015,07,19,09,12,23.90
2015,07,19,09,13,23.80
2015,07,19,09,14,23.80
2015,07,19,09,15,23.90
2015,07,19,09,16,23.90
2015,07,19,09,17,23.90
2015,07,19,09,18,23.90
2015,07,19,09,19,24.00
2015,07,19,09,20,24.10
2015,07,19,09,21,24.10
2015,07,19,09,22,24.10
2015,07,19,09,23,24.10
2015,07,19,09,24,24.10
2015,07,19,09,25,24.10
2015,07,19,09,26,24.10
2015,07,19,09,27,24.10
2015,07,19,09,28,24.20
2015,07,19,09,29,24.20
2015,07,19,09,30,24.10
2015,07,19,09,31,24.10
2015,07,19,09,32,24.10
2015,07,19,09,33,24.10
2015,07,19,09,34,24.10
2015,07,19,09,35,24.10
2015,07,19,09,36,24.10
2015,07,19,09,37,24.10
2015,07,19,09,38,24.10
2015,07,19,09,39,24.00
2015,07,19,09,40,23.90
2015,07,19,09,41,23.90
2015,07,19,09,42,23.90
2015,07,19,09,43,23.90
2015,07,19,09,44,23.90
2015,07,19,09,45,24.00
2015,07,19,09,46,24.10
2015,07,19,09,47,24.10
2015,07,19,09,48,24.10
2015,07,19,09,49,24.10
2015,07,19,09,50,24.10
2015,07,19,09,51,24.10
2015,07,19,09,52,24.10
2015,07,19,09,53,24.10
2015,07,19,09,54,24.10
2015,07,19,09,55,24.20
2015,07,19,09,56,24.30
2015,07,19,09,57,24.30
2015,07,19,09,58,24.40
2015,07,19,09,59,24.40
2015,07,19,10,00,24.40
2015,07,19,10,01,24.40
2015,07,19,10,02,24.40
2015,07,19,10,03,24.50
2015,07,19,10,04,24.40
2015,07,19,10,05,24.40
2015,07,19,10,06,24.40
2015,07,19,10,07,24.40
2015,07,19,10,08,24.30
2015,07,19,10,09,24.30
2015,07,19,10,10,24.30
2015,07,19,10,11,24.30
2015,07,19,10,12,24.30
2015,07,19,10,13,24.20
2015,07,19,10,14,24.20
2015,07,19,10,15,24.30
2015,07,19,10,16,24.30
2015,07,19,10,17,24.30
2015,07,19,10,18,24.30
2015,07,19,10,19,24.30
2015,07,19,10,20,24.30
2015,07,19,10,21,24.40
2015,07,19,10,22,24.40
2015,07,19,10,23,24.40
2015,07,19,10,24,24.40
2015,07,19,10,25,24.40
2015,07,19,10,26,24.40
2015,07,19,10,27,24.40
2015,07,19,10,28,24.30
2015,07,19,10,29,24.40
2015,07,19,10,30,24.40
2015,07,19,10,31,24.40
2015,07,19,10,32,24.50
2015,07,19,10,33,24.50
2015,07,19,10,34,24.60
2015,07,19,10,35,24.60
2015,07,19,10,36,24.70
2015,07,19,10,37,24.70
2015,07,19,10,38,24.70
2015,07,19,10,39,24.70
2015,07,19,10,40,24.70
2015,07,19,10,41,24.60
2015,07,19,10,42,24.60
2015,07,19,10,43,24.60
2015,07,19,10,44,24.60
2015,07,19,10,45,24.70
2015,07,19,10,46,24.70
2015,07,19,10,47,24.80
2015,07,19,10,48,24.90
2015,07,19,10,49,24.80
2015,07,19,10,50,24.90
2015,07,19,10,51,24.90
2015,07,19,10,52,24.90
2015,07,19,10,53,25.00
2015,07,19,10,54,25.00
2015,07,19,10,55,25.00
2015,07,19,10,56,25.10
2015,07,19,10,57,25.20
2015,07,19,10,58,25.20
2015,07,19,10,59,25.30
2015,07,19,11,00,25.30
2015,07,19,11,01,25.30
2015,07,19,11,02,25.30
2015,07,19,11,03,25.30
2015,07,19,11,04,25.30
2015,07,19,11,05,25.30
2015,07,19,11,06,25.30
2015,07,19,11,07,25.40
2015,07,19,11,08,25.40
2015,07,19,11,09,25.40
2015,07,19,11,10,25.40
2015,07,19,11,11,25.40
2015,07,19,11,12,25.40
2015,07,19,11,13,25.40
2015,07,19,11,14,25.40
2015,07,19,11,15,25.40
2015,07,19,11,16,25.50
2015,07,19,11,17,25.50
2015,07,19,11,18,25.50
2015,07,19,11,19,25.50
2015,07,19,11,20,25.60
2015,07,19,11,21,25.60
2015,07,19,11,22,25.60
2015,07,19,11,23,25.60
2015,07,19,11,24,25.60
2015,07,19,11,25,25.60
2015,07,19,11,26,25.50
2015,07,19,11,27,25.50
2015,07,19,11,28,25.50
2015,07,19,11,29,25.40
2015,07,19,11,30,25.40
2015,07,19,11,31,25.40
2015,07,19,11,32,25.40
2015,07,19,11,33,25.40
2015,07,19,11,34,25.40
2015,07,19,11,35,25.50
2015,07,19,11,36,25.50
2015,07,19,11,37,25.50
2015,07,19,11,38,25.50
2015,07,19,11,39,25.50
2015,07,19,11,40,25.50
2015,07,19,11,41,25.50
2015,07,19,11,42,25.50
2015,07,19,11,43,25.50
2015,07,19,11,44,25.50
2015,07,19,11,45,25.40
2015,07,19,11,46,25.30
2015,07,19,11,47,25.30
2015,07,19,11,48,25.20
2015,07,19,11,49,25.20
2015,07,19,11,50,25.20
2015,07,19,11,51,25.30
2015,07,19,11,52,25.20
2015,07,19,11,53,25.10
2015,07,19,11,54,24.90
2015,07,19,11,55,24.90
2015,07,19,11,56,24.90
2015,07,19,11,57,25.00
2015,07,19,11,58,25.10
2015,07,19,11,59,25.10
2015,07,19,12,00,25.20
2015,07,19,12,01,25.40
2015,07,19,12,02,25.50
2015,07,19,12,03,25.60
2015,07,19,12,04,25.60
2015,07,19,12,05,25.60
2015,07,19,12,06,25.50
2015,07,19,12,07,25.50
2015,07,19,12,08,25.50
2015,07,19,12,09,25.50
2015,07,19,12,10,25.50
2015,07,19,12,11,25.50
2015,07,19,12,12,25.40
2015,07,19,12,13,25.40
2015,07,19,12,14,25.40
2015,07,19,12,15,25.40
2015,07,19,12,16,25.30
2015,07,19,12,17,25.30
2015,07,19,12,18,25.20
2015,07,19,12,19,25.30
2015,07,19,12,20,25.20
2015,07,19,12,21,25.20
2015,07,19,12,22,25.20
2015,07,19,12,23,25.20
2015,07,19,12,24,25.20
2015,07,19,12,25,25.20
2015,07,19,12,26,25.30
2015,07,19,12,27,25.50
2015,07,19,12,28,25.50
2015,07,19,12,29,25.50
2015,07,19,12,30,25.60
2015,07,19,12,31,25.60
2015,07,19,12,32,25.70
2015,07,19,12,33,25.80
2015,07,19,12,34,25.90
2015,07,19,12,35,25.90
2015,07,19,12,36,25.90
2015,07,19,12,37,26.00
2015,07,19,12,38,26.10
2015,07,19,12,39,26.20
2015,07,19,12,40,26.30
2015,07,19,12,41,26.40
2015,07,19,12,42,26.40
2015,07,19,12,43,26.50
2015,07,19,12,44,26.60
2015,07,19,12,45,26.60
2015,07,19,12,46,26.60
2015,07,19,12,47,26.60
2015,07,19,12,48,26.70
2015,07,19,12,49,26.70
2015,07,19,12,50,26.80
2015,07,19,12,51,26.90
2015,07,19,12,52,27.00
2015,07,19,12,53,27.10
2015,07,19,12,54,27.20
2015,07,19,12,55,27.20
2015,07,19,12,56,27.20
2015,07,19,12,57,27.10
2015,07,19,12,58,27.10
2015,07,19,12,59,27.00
2015,07,19,13,00,26.90
2015,07,19,13,01,26.90
2015,07,19,13,02,27.10
2015,07,19,13,03,27.10
2015,07,19,13,04,27.10
2015,07,19,13,05,27.10
2015,07,19,13,06,26.90
2015,07,19,13,07,26.90
2015,07,19,13,08,27.00
2015,07,19,13,09,27.10
2015,07,19,13,10,27.20
2015,07,19,13,11,27.30
2015,07,19,13,12,27.30
2015,07,19,13,13,27.30
2015,07,19,13,14,27.20
2015,07,19,13,15,27.10
2015,07,19,13,16,27.00
2015,07,19,13,17,26.90
2015,07,19,13,18,26.70
2015,07,19,13,19,26.60
2015,07,19,13,20,26.60
2015,07,19,13,21,26.70
2015,07,19,13,22,26.80
2015,07,19,13,23,26.90
2015,07,19,13,24,26.90
2015,07,19,13,25,26.90
2015,07,19,13,26,26.80
2015,07,19,13,27,26.80
2015,07,19,13,28,26.70
2015,07,19,13,29,26.60
2015,07,19,13,30,26.60
2015,07,19,13,31,26.60
2015,07,19,13,32,26.70
2015,07,19,13,33,26.80
2015,07,19,13,34,26.80
2015,07,19,13,35,26.80
2015,07,19,13,36,26.70
2015,07,19,13,37,26.70
2015,07,19,13,38,26.60
2015,07,19,13,39,26.60
2015,07,19,13,40,26.60
2015,07,19,13,41,26.60
2015,07,19,13,42,26.60
2015,07,19,13,43,26.60
2015,07,19,13,44,26.60
2015,07,19,13,45,26.70
2015,07,19,13,46,26.70
2015,07,19,13,47,26.80
2015,07,19,13,48,26.80
2015,07,19,13,49,26.90
2015,07,19,13,50,26.90
2015,07,19,13,51,27.00
2015,07,19,13,52,27.00
2015,07,19,13,53,26.80
2015,07,19,13,54,26.80
2015,07,19,13,55,26.80
2015,07,19,13,56,26.80
2015,07,19,13,57,26.80
2015,07,19,13,58,26.80
2015,07,19,13,59,26.70
2015,07,19,14,00,26.80
2015,07,19,14,01,26.80
2015,07,19,14,02,27.00
2015,07,19,14,03,27.10
2015,07,19,14,04,27.20
2015,07,19,14,05,27.30
2015,07,19,14,06,27.40
2015,07,19,14,07,27.60
2015,07,19,14,08,27.60
2015,07,19,14,09,27.60
2015,07,19,14,10,27.60
2015,07,19,14,11,27.60
2015,07,19,14,12,27.70
2015,07,19,14,13,27.80
2015,07,19,14,14,27.80
2015,07,19,14,15,27.90
2015,07,19,14,16,27.90
2015,07,19,14,17,28.00
2015,07,19,14,18,28.10
2015,07,19,14,19,28.20
2015,07,19,14,20,28.30
2015,07,19,14,21,28.40
2015,07,19,14,22,28.60
2015,07,19,14,23,28.70
2015,07,19,14,24,28.80
2015,07,19,14,25,28.80
2015,07,19,14,26,28.90
2015,07,19,14,27,28.90
2015,07,19,14,28,28.90
2015,07,19,14,29,28.90
2015,07,19,14,30,29.00
2015,07,19,14,31,29.10
2015,07,19,14,32,28.90
2015,07,19,14,33,28.90
2015,07,19,14,34,28.90
2015,07,19,14,35,28.80
2015,07,19,14,36,28.70
2015,07,19,14,37,28.70
2015,07,19,14,38,28.60
2015,07,19,14,39,28.60
2015,07,19,14,40,28.70
2015,07,19,14,41,28.70
2015,07,19,14,42,28.80
2015,07,19,14,43,28.80
2015,07,19,14,44,28.90
2015,07,19,14,45,28.90
2015,07,19,14,46,28.90
2015,07,19,14,47,28.90
2015,07,19,14,48,29.10
2015,07,19,14,49,29.10
2015,07,19,14,50,29.10
2015,07,19,14,51,29.10
2015,07,19,14,52,29.20
2015,07,19,14,53,29.10
2015,07,19,14,54,29.10
2015,07,19,14,55,29.00
2015,07,19,14,56,28.90
2015,07,19,14,57,28.90
2015,07,19,14,58,28.80
2015,07,19,14,59,28.80
2015,07,19,15,00,28.90
2015,07,19,15,01,28.90
2015,07,19,15,02,29.00
2015,07,19,15,03,29.10
2015,07,19,15,04,29.20
2015,07,19,15,05,29.20
2015,07,19,15,06,29.30
2015,07,19,15,07,29.40
2015,07,19,15,08,29.50
2015,07,19,15,09,29.60
2015,07,19,15,10,29.60
2015,07,19,15,11,29.60
2015,07,19,15,12,29.70
2015,07,19,15,13,29.70
2015,07,19,15,14,29.70
2015,07,19,15,15,29.60
2015,07,19,15,16,29.60
2015,07,19,15,17,29.60
2015,07,19,15,18,29.60
2015,07,19,15,19,29.50
2015,07,19,15,20,29.50
2015,07,19,15,21,29.40
2015,07,19,15,22,29.30
2015,07,19,15,23,29.30
2015,07,19,15,24,29.30
2015,07,19,15,25,29.30
2015,07,19,15,26,29.30
2015,07,19,15,27,29.30
2015,07,19,15,28,29.30
2015,07,19,15,29,29.40
2015,07,19,15,30,29.40
2015,07,19,15,31,29.40
2015,07,19,15,32,29.40
2015,07,19,15,33,29.30
2015,07,19,15,34,29.30
2015,07,19,15,35,29.30
2015,07,19,15,36,29.30
2015,07,19,15,37,29.20
2015,07,19,15,38,29.20
2015,07,19,15,39,29.30
2015,07,19,15,40,29.30
2015,07,19,15,41,29.30
2015,07,19,15,42,29.30
2015,07,19,15,43,29.40
2015,07,19,15,44,29.40
2015,07,19,15,45,29.40
2015,07,19,15,46,29.40
2015,07,19,15,47,29.50
2015,07,19,15,48,29.50
2015,07,19,15,49,29.60
2015,07,19,15,50,29.60
2015,07,19,15,51,29.70
2015,07,19,15,52,29.70
2015,07,19,15,53,29.70
2015,07,19,15,54,29.80
2015,07,19,15,55,29.80
2015,07,19,15,56,29.80
2015,07,19,15,57,29.90
2015,07,19,15,58,29.90
2015,07,19,15,59,29.90
2015,07,19,16,00,30.00
2015,07,19,16,01,30.10
2015,07,19,16,02,30.10
2015,07,19,16,03,30.10
2015,07,19,16,04,30.10
2015,07,19,16,05,30.10
2015,07,19,16,06,30.10
2015,07,19,16,07,30.10
2015,07,19,16,08,30.20
2015,07,19,16,09,30.20
2015,07,19,16,10,30.30
2015,07,19,16,11,30.30
2015,07,19,16,12,30.30
2015,07,19,16,13,30.30
2015,07,19,16,14,30.20
2015,07,19,16,15,30.10
2015,07,19,16,16,30.00
2015,07,19,16,17,29.90
2015,07,19,16,18,29.80
2015,07,19,16,19,29.80
2015,07,19,16,20,29.70
2015,07,19,16,21,29.70
2015,07,19,16,22,29.70
2015,07,19,16,23,29.80
2015,07,19,16,24,29.70
2015,07,19,16,25,29.70
2015,07,19,16,26,29.70
2015,07,19,16,27,29.60
2015,07,19,16,28,29.60
2015,07,19,16,29,29.50
2015,07,19,16,30,29.50
2015,07,19,16,31,29.50
2015,07,19,16,32,29.40
2015,07,19,16,33,29.40
2015,07,19,16,34,29.50
2015,07,19,16,35,29.50
2015,07,19,16,36,29.60
2015,07,19,16,37,29.60
2015,07,19,16,38,29.60
2015,07,19,16,39,29.60
2015,07,19,16,40,29.60
2015,07,19,16,41,29.70
2015,07,19,16,42,29.70
2015,07,19,16,43,29.80
2015,07,19,16,44,29.80
2015,07,19,16,45,29.90
2015,07,19,16,46,30.00
2015,07,19,16,47,30.10
2015,07,19,16,48,30.10
2015,07,19,16,49,30.10
2015,07,19,16,50,30.00
2015,07,19,16,51,30.00
2015,07,19,16,52,29.90
2015,07,19,16,53,29.90
2015,07,19,16,54,30.00
2015,07,19,16,55,30.10
2015,07,19,16,56,30.10
2015,07,19,16,57,30.10
2015,07,19,16,58,30.10
2015,07,19,16,59,30.10
2015,07,19,17,00,30.10
2015,07,19,17,01,30.10
2015,07,19,17,02,29.90
2015,07,19,17,03,30.00
2015,07,19,17,04,30.10
2015,07,19,17,05,30.10
2015,07,19,17,06,30.20
2015,07,19,17,07,30.30
2015,07,19,17,08,30.30
2015,07,19,17,09,30.40
2015,07,19,17,10,30.40
2015,07,19,17,11,30.60
2015,07,19,17,12,30.60
2015,07,19,17,13,30.70
2015,07,19,17,14,30.80
2015,07,19,17,15,30.90
2015,07,19,17,16,31.00
2015,07,19,17,17,31.00
2015,07,19,17,18,30.90
2015,07,19,17,19,30.90